Preview of NWS' New Version of Forecast
This preview is not operational and should not be used for support decisions.

Regional Weather Roundup (RWR)

Issued by National Weather Service (NWS)

                            
000
ASUS45 KCYS 211910
RWRWY 

WYOMING REGIONAL WEATHER ROUNDUP
NATIONAL WEATHER SERVICE CHEYENNE WY
100 PM MDT WED AUG 21 2019

NOTE:  "FAIR" INDICATES FEW OR NO CLOUDS BELOW 12,000 FEET
WITH NO SIGNIFICANT WEATHER AND/OR OBSTRUCTIONS TO VISIBILITY.

WYZ001-212000-
...YELLOWSTONE NATIONAL PARK...
  
CITY           SKY/WX    TMP DP  RH WIND       PRES   REMARKS
LK YELLOWSTONE   N/A     69  43  38 CALM      30.31F                  
W YELLOWSTONE  NOT AVBL                                               

$$
WYZ002>013-054>058-071-098>099-212000-
...NORTHERN WYOMING...
  
CITY           SKY/WX    TMP DP  RH WIND       PRES   REMARKS
JACKSON        MOSUNNY   79  40  24 SW9       30.19F                  
CODY           MOSUNNY   81  51  35 VRB7      30.12F HAZE             
GREYBULL       SUNNY     85  52  32 CALM      30.03F                  
WORLAND        SUNNY     83  53  35 VRB3      30.05F                  
SHERIDAN       MOSUNNY   88  55  32 SE10      30.07F                  
BUFFALO        MOSUNNY   77  53  43 S10       30.15F                  
GILLETTE       SUNNY     81  57  43 SE15G26   30.13F                  
HULETT         CLOUDY    79  57  47 CALM      30.16F                  
NEWCASTLE      FAIR      72  55  56 SE16G24   30.19F                  

$$
WYZ014>020-022>026-101>103-212000-
...CENTRAL WYOMING...
  
CITY           SKY/WX    TMP DP  RH WIND       PRES   REMARKS
BIG PINEY      SUNNY     80  28  15 S9        30.25F                  
PINEDALE       MOSUNNY   81  30  16 SE8       30.26F                  
DUBOIS         FAIR      72  41  33 SE9       30.24F                  
LANDER         PTSUNNY   76  51  41 NW3       30.18R                  
RIVERTON       PTSUNNY   81  51  35 E10       30.16F                  
CASPER         SUNNY     81  49  32 CALM      30.15F                  
DOUGLAS        SUNNY     81  55  40 SE23G31   30.16F                  

$$
WYZ021-027>030-104>119-212000-
...SOUTHERN WYOMING...
  
CITY           SKY/WX    TMP DP  RH WIND       PRES   REMARKS
EVANSTON       SUNNY     84  22  10 NW9       30.24F                  
KEMMERER       SUNNY     81  19  10 W6        30.26F                  
FORT BRIDGER   NOT AVBL                                               
ROCK SPRINGS   SUNNY     83  30  14 MISG      30.22F                  
DIXON          FAIR      82  28  14 W8        30.24F                  
RAWLINS        SUNNY     82  29  14 VRB7      30.24F                  
SARATOGA       FAIR      79  27  14 W3        30.27F                  
LARAMIE        SUNNY     77  47  34 S18G31    30.27F                  
CHEYENNE       MOSUNNY   76  53  44 S13G22    30.26F                  
TORRINGTON     SUNNY     78  58  49 SE10      30.15F                  
PINE BLUFFS    FAIR      77  50  38 SE10      30.22F                  

$$
  

000
ASUS45 KCYS 211910
RWRWY 

WYOMING REGIONAL WEATHER ROUNDUP
NATIONAL WEATHER SERVICE CHEYENNE WY
100 PM MDT WED AUG 21 2019

NOTE:  "FAIR" INDICATES FEW OR NO CLOUDS BELOW 12,000 FEET
WITH NO SIGNIFICANT WEATHER AND/OR OBSTRUCTIONS TO VISIBILITY.

WYZ001-212000-
YELLOWSTONE NATIONAL PARK
  
CITY           SKY/WX    TMP DP  RH WIND       PRES   REMARKS
LK YELLOWSTONE   N/A     69  43  38 CALM      30.31F                  
W YELLOWSTONE  NOT AVBL                                               

$$
WYZ002>013-054>058-071-098>099-212000-
NORTHERN WYOMING
  
CITY           SKY/WX    TMP DP  RH WIND       PRES   REMARKS
JACKSON        FAIR      79  40  24 SW9       30.19F                  
CODY           FAIR      81  51  35 VRB7      30.12F HAZE             
GREYBULL       FAIR      85  52  32 CALM      30.03F                  
WORLAND        FAIR      83  53  35 VRB3      30.05F                  
SHERIDAN       FAIR      88  55  32 SE10      30.07F                  
BUFFALO        FAIR      77  53  43 S10       30.15F                  
GILLETTE       FAIR      81  57  43 SE15G26   30.13F                  
HULETT         CLOUDY    79  57  47 CALM      30.16F                  
NEWCASTLE      FAIR      72  55  56 SE16G24   30.19                   

$$
WYZ014>020-022>026-101>103-212000-
CENTRAL WYOMING
  
CITY           SKY/WX    TMP DP  RH WIND       PRES   REMARKS
BIG PINEY      FAIR      80  28  15 S9        30.25F                  
PINEDALE       FAIR      81  30  16 SE8       30.26                   
DUBOIS         FAIR      72  41  33 SE9       30.24                   
LANDER         FAIR      76  51  41 NW3       30.18R                  
RIVERTON       FAIR      81  51  35 E10       30.16F                  
CASPER         FAIR      81  49  32 CALM      30.15F                  
DOUGLAS        FAIR      81  55  40 SE23G31   30.16F                  

$$
WYZ021-027>030-104>119-212000-
SOUTHERN WYOMING
  
CITY           SKY/WX    TMP DP  RH WIND       PRES   REMARKS
EVANSTON       FAIR      84  22  10 NW9       30.24F                  
KEMMERER       FAIR      81  19  10 W6        30.26                   
ROCK SPRINGS   FAIR      83  30  14 MISG      30.22F                  
DIXON          FAIR      82  28  14 W8        30.24F                  
RAWLINS        FAIR      82  29  14 VRB7      30.24F                  
SARATOGA       FAIR      79  27  14 W3        30.27F                  
LARAMIE        FAIR      77  47  34 S18G31    30.27F                  
CHEYENNE       FAIR      76  53  44 S13G22    30.26F                  
TORRINGTON     FAIR      78  58  49 SE10      30.15F                  
PINE BLUFFS    FAIR      77  50  38 SE10      30.22F                  

$$